This demonstration page uses our WeatherBlox Daily Observations layout. Learn more.

Left ArrowRight Arrow

34.02893, -84.19858

Hourly Observations for July 29, 2018

Temp ( °F °C ) Dew Point ( °F °C ) Humidity (%) Winds ( mph kmh ) Pressure ( in mb ) Visibility ( mi km ) Precip ( " mm )
12:53 am 00:53 Clear 69 20.6 62 16.7 78 78 Calm 30.02 1017 10 16 0.00 0.00
1:53 am 01:53 Clear 66 18.9 62 16.7 87 87 Calm 30.01 1016 10 16 0.00 0.00
2:53 am 02:53 Clear 65 18.3 62 16.7 90 90 Calm 30.01 1016 10 16 0.00 0.00
3:53 am 03:53 Clear 65 18.3 63 17.2 93 93 Calm 30.01 1016 10 16 0.00 0.00
4:53 am 04:53 Clear 67 19.4 62 16.7 84 84 Calm 30.01 1016 10 16 0.00 0.00
5:53 am 05:53 Clear 68 20 61 16.1 78 78 Calm 30.00 1016 10 16 0.00 0.00
6:53 am 06:53 Sunny 64 17.8 62 16.7 93 93 Calm 30.02 1017 9 14 0.00 0.00
7:53 am 07:53 Sunny 68 20 63 17.2 84 84 Calm 30.03 1017 10 16 0.00 0.00
8:53 am 08:53 Sunny 73 22.8 64 17.8 74 74 Calm 30.02 1017 10 16 0.00 0.00
9:53 am 09:53 Sunny 77 25 64 17.8 64 64 VRB 3 6 30.02 1017 10 16 0.00 0.00
10:53 am 10:53 Sunny 80 26.7 66 18.9 62 62 E 6 9 30.02 1017 10 16 0.00 0.00
11:53 am 11:53 Sunny 82 27.8 66 18.9 58 58 E 3 6 30.03 1017 10 16 0.00 0.00
12:53 pm 12:53 Sunny 84 28.9 62 16.7 48 48 VRB 7 11 30.02 1017 10 16 0.00 0.00
1:53 pm 13:53 Sunny 87 30.6 62 16.7 43 43 VRB 5 7 30.01 1016 10 16 0.00 0.00
2:53 pm 14:53 Sunny 88 31.1 59 15 38 38 SW 5 7 29.98 1015 10 16 0.00 0.00
3:53 pm 15:53 Sunny 89 31.7 55 12.8 31 31 VRB 3 6 29.96 1015 10 16 0.00 0.00
4:53 pm 16:53 Sunny 89 31.7 54 12.2 30 30 W 7 11 29.93 1014 10 16 0.00 0.00
5:53 pm 17:53 Sunny 89 31.7 55 12.8 31 31 NW 3 6 29.93 1014 10 16 0.00 0.00
6:53 pm 18:53 Sunny 89 31.7 56 13.3 33 33 NNE 3 6 29.94 1014 10 16 0.00 0.00
7:53 pm 19:53 Sunny 80 26.7 63 17.2 56 56 Calm 29.96 1015 10 16 0.00 0.00
8:53 pm 20:53 Clear 79 26.1 64 17.8 60 60 SSE 5 7 29.96 1015 10 16 0.00 0.00
9:53 pm 21:53 Clear 76 24.4 66 18.9 72 72 Calm 29.97 1015 10 16 0.00 0.00
10:53 pm 22:53 Clear 76 24.4 64 17.8 67 67 E 5 7 30.00 1016 10 16 0.00 0.00
11:53 pm 23:53 Clear 76 24.4 69 20.6 79 79 SE 6 9 30.00 1016 10 16 0.00 0.00

Powered by AerisWeather